Simultaneous Nadir Overpasses (SNOs) Predictions

Prediction of SNOs between GOES-14 and NPP Satellite Orbit:

Table of predicted SNOs for the next 14.0 days since TLE Epoch: 12/31/2022
Index Date Time (GOES-14) GOES-14 Lat,Lon NPP Lat,Lon Distance(km) Time Diff (sec)
1 01/01/2023 08:34:07 -0.07,-104.50 0.36,-106.56 234.35 80
2 01/02/2023 08:12:42 -0.06,-104.50 -0.60,-102.02 282.46 80
3 01/03/2023 20:34:39 0.07,-104.12 -0.63,-107.31 363.82 80
4 01/04/2023 20:18:35 0.06,-104.13 0.33,-102.77 153.55 80
5 01/06/2023 08:40:26 -0.06,-104.53 0.72,-108.07 403.02 80
6 01/07/2023 08:19:03 -0.05,-104.54 -0.31,-103.54 113.89 80
7 01/09/2023 20:22:15 0.05,-104.16 -0.00,-104.29 16.08 80
8 01/12/2023 08:28:01 -0.06,-104.58 0.08,-105.05 54.41 80
9 01/13/2023 08:06:38 -0.05,-104.59 -0.96,-100.53 462.88 80
